Tracking 23757 objects as of 25-Oct-2021
HD Live streaming from Space Station
objects crossing your sky now

FREGAT DEB

Track FREGAT DEB now!
10-day predictions


NORAD ID: 45891
Int'l Code: 2011-037DL
Perigee: 643.5 km
Apogee: 3,144.3 km
Inclination: 51.4 °
Period: 124.6 minutes
Semi major axis: 8264 km
RCS: Unknown
Launch date: July 18, 2011
Source: Commonwealth of Independent States (former USSR) (CIS)
Launch site: TYURATAM MISSILE AND SPACE COMPLEX (TTMTR)

Note: This is SATELLITE DEBRIS
aabbcc
Your satellite tracking list
Your tracking list is empty




NASA's NSSDC Master Catalog

Two Line Element Set (TLE):
1 45891U 11037DL  21294.93320464 -.00004400  00000-0 -42975-2 0  9997
2 45891  51.4270 135.4874 1512895 322.7233  27.7351 11.55434467 54243
Source of the keplerian elements: AFSPC